Starlink 11405

operational
NORAD ID: 63008 Int'l Des: 2025-032 Owner: SPXS Country: US Constellation: starlink
LEOCIRCULAR

About Starlink 11405

Description loading...

Live Position

Loading 3D Globe...

Upcoming Passes

Altitude History

Altitude vs Time

uPlot chart will show altitude changes over time

Two-Line Element Set

1 63008U 25032D 25260.12433145 .00178703 00000-0 13642-2 0 9991
2 63008 42.9998 161.7920 0001761 268.0018 92.0648 15.70878990 34769
Epoch: Sep 17, 2025 • Age: 10 hours

Current Status

Altitude 359.9 km
Velocity 7.70 km/s
Sub-Earth Point 41.54°N, 83.1°E
Launch Date Feb 15, 2025
Age 0.5 years
Type internet

Technical Details

Classification Payload
Mass 960.00 kg
Dry Mass 910.00 kg
Total Mass 960.00 kg
Length 0.30 m
Diameter 4.10 m
Span 29.00 m
Shape Box + pan
Manufacturer SPXS
Bus Type Starlink V2MD
Phase Status In Orbit
Owner/State SPXS/US

Large Constellations

Loading constellations...